Terug naar catalogus

STARLINK-32313

ActiefCommunicatieVLEO
NORAD 61527·PAYLOAD·🇺🇸 United States

Gelanceerd Oct 15, 2024 vanaf Cape Canaveral Space Force Station

Loading…

Volgende Passages (komende 24 uur)

TLE

VersSource: CelesTrak SupGP

Epoch: Sep 15, 2026, 02:37 UTC

1 61527C 24183U   26258.10951389 -.00057941  00000+0 -17131-2 0  2588
2 61527  53.1589 340.7109 0001144  86.4250 146.1288 15.34397784    15

Volg STARLINK-32313 in realtime met AllMySat

Download on the App Store